Puyallup, WA
on Tuesday, January 29, 2013

Tuesday
Previous Day Next Day
Daily Summary
 ActualAverage (KSEA)Record (KSEA)
Temperature
Mean Temperature °F 43°F  
Max Temperature 44°F 49°F 60°F (1992)
Min Temperature 41°F 37°F 6°F (1950)
Degree Days
Heating Degree Days 22 22  
Month to date heating degree days 666  
Since 1 July heating degree days 2604  
Cooling Degree Days 0 0  
Month to date cooling degree days 0  
Year to date cooling degree days 0  
Moisture
Dew Point 43°F   
Average Humidity 99    
Maximum Humidity 100    
Minimum Humidity 93    
Precipitation
Precipitation 0.13 in 0.16 in 1.63 in (2004)
Month to date precipitation 5.26  
Year to date precipitation 5.26  
Snow
Snow 0.00 in in 7.00 in (1969)
Month to date snowfall  
Since 1 July snowfall  
Snow Depth in   
Wind
Wind Speed 2 mph   
Max Wind Speed 12 mph   
Max Gust Speed 20 mph   
Visibility 8 miles   
Events Rain   

Key: T is trace of precipitation, MM is missing value
Source: NWS Daily Summary
Time(PST)TemperatureDew PointHumidity Pressure Visibility Wind DirectionWind SpeedGust SpeedPrecipitationEvents Conditions
12:15 AM 41.0°F 41.0°F 100% 30.11 in 10.0 miles Calm Calm - N/A Rain Light Rain
12:35 AM 41.0°F 41.0°F 100% 30.12 in 7.0 miles Calm Calm - 0.01 in Rain Light Rain
12:55 AM 41.0°F 41.0°F 100% 30.12 in 10.0 miles Calm Calm - 0.01 in Rain Light Rain
1:15 AM 41.0°F 41.0°F 100% 30.12 in 10.0 miles Calm Calm - N/A Rain Light Rain
1:35 AM 41.0°F 41.0°F 100% 30.13 in 10.0 miles Calm Calm - 0.01 in Rain Light Rain
1:55 AM 41.0°F 41.0°F 100% 30.13 in 10.0 miles Calm Calm - 0.01 in Rain Light Rain
2:15 AM 41.0°F 41.0°F 100% 30.14 in 10.0 miles Calm Calm - 0.01 in Rain Light Rain
2:35 AM 41.0°F 41.0°F 100% 30.14 in 9.0 miles Calm Calm - 0.02 in Rain Light Rain
2:55 AM 41.0°F 41.0°F 100% 30.15 in 9.0 miles Calm Calm - 0.02 in Rain Light Rain
3:15 AM 41.0°F 41.0°F 100% 30.15 in 10.0 miles Calm Calm - N/A Rain Light Rain
3:35 AM 41.0°F 41.0°F 100% 30.15 in 10.0 miles SW 3.5 mph - N/A Rain Light Rain
3:55 AM 41.0°F 41.0°F 100% 30.16 in 7.0 miles Calm Calm - 0.01 in Rain Light Rain
4:15 AM 41.0°F 41.0°F 100% 30.17 in 9.0 miles Calm Calm - 0.01 in Rain Light Rain
4:35 AM 41.0°F 41.0°F 100% 30.17 in 8.0 miles Calm Calm - 0.02 in Rain Light Rain
4:55 AM 41.0°F 41.0°F 100% 30.17 in 10.0 miles SW 4.6 mph - 0.02 in Rain Light Rain
5:15 AM 42.8°F 42.8°F 100% 30.17 in 10.0 miles Calm Calm - 0.01 in Rain Light Rain
5:35 AM 42.8°F 42.8°F 100% 30.18 in 10.0 miles Calm Calm - 0.01 in Rain Light Rain
5:55 AM 42.8°F 42.8°F 100% 30.19 in 10.0 miles SW 4.6 mph - 0.01 in Rain Light Rain
6:15 AM 42.8°F 42.8°F 100% 30.20 in 10.0 miles Calm Calm - N/A Rain Light Rain
6:35 AM 42.8°F 42.8°F 100% 30.21 in 10.0 miles Calm Calm - N/A Rain Light Rain
6:55 AM 42.8°F 42.8°F 100% 30.21 in 10.0 miles Calm Calm - N/A Rain Light Rain
7:15 AM 42.8°F 42.8°F 100% 30.21 in 10.0 miles Calm Calm - N/A Rain Light Rain
7:35 AM 42.8°F 42.8°F 100% 30.22 in 10.0 miles Calm Calm - 0.01 in   Overcast
7:55 AM 42.8°F 42.8°F 100% 30.23 in 10.0 miles Calm Calm - 0.01 in   Overcast
8:15 AM 42.8°F 42.8°F 100% 30.24 in 10.0 miles Calm Calm - N/A   Overcast
8:35 AM 44.6°F 44.6°F 100% 30.25 in 10.0 miles Calm Calm - N/A   Overcast
8:55 AM 44.6°F 44.6°F 100% 30.26 in 10.0 miles Calm Calm - N/A   Overcast
9:15 AM 44.6°F 44.6°F 100% 30.26 in 10.0 miles Calm Calm - N/A   Overcast
9:35 AM 44.6°F 44.6°F 100% 30.27 in 9.0 miles Calm Calm - N/A   Overcast
9:55 AM 44.6°F 44.6°F 100% 30.28 in 9.0 miles Calm Calm - N/A   Overcast
10:15 AM 44.6°F 44.6°F 100% 30.28 in 5.0 miles Calm Calm - N/A   Overcast
10:35 AM 44.6°F 44.6°F 100% 30.30 in 5.0 miles Calm Calm - N/A   Overcast
10:55 AM 44.6°F 44.6°F 100% 30.31 in 4.0 miles Calm Calm - N/A   Overcast
11:15 AM 44.6°F 44.6°F 100% 30.31 in 3.0 miles Calm Calm - N/A   Overcast
11:35 AM 44.6°F 44.6°F 100% 30.32 in 1.2 miles Calm Calm - N/A   Overcast
11:55 AM 44.6°F 44.6°F 100% 30.31 in 2.0 miles Calm Calm - N/A   Overcast
12:15 PM 44.6°F 44.6°F 100% 30.31 in 4.0 miles SSW 3.5 mph - N/A   Overcast
12:35 PM 44.6°F 44.6°F 100% 30.32 in 7.0 miles SW 3.5 mph - N/A   Overcast
12:55 PM 44.6°F 44.6°F 100% 30.32 in 10.0 miles SSW 4.6 mph - N/A   Overcast
1:15 PM 44.6°F 44.6°F 100% 30.32 in 8.0 miles Calm Calm - N/A   Overcast
1:35 PM 44.6°F 44.6°F 100% 30.32 in 8.0 miles SSW 5.8 mph - N/A   Overcast
1:55 PM 44.6°F 44.6°F 100% 30.32 in 4.0 miles SW 4.6 mph - N/A   Overcast
2:35 PM 44.6°F 44.6°F 100% 30.33 in 5.0 miles SSW 8.1 mph - N/A   Overcast
2:55 PM 44.6°F 44.6°F 100% 30.33 in 2.0 miles SSW 5.8 mph - N/A   Overcast
3:15 PM 44.6°F 44.6°F 100% 30.33 in 3.0 miles SW 3.5 mph - N/A   Overcast
3:35 PM 44.6°F 44.6°F 100% 30.34 in 7.0 miles SSW 3.5 mph - N/A   Overcast
3:55 PM 44.6°F 44.6°F 100% 30.35 in 10.0 miles SW 4.6 mph - N/A   Overcast
4:15 PM 44.6°F 44.6°F 100% 30.35 in 8.0 miles SSW 6.9 mph - N/A   Overcast
4:35 PM 44.6°F 44.6°F 100% 30.36 in 8.0 miles SSW 5.8 mph - N/A   Overcast
4:55 PM 44.6°F 44.6°F 100% 30.36 in 10.0 miles SSW 5.8 mph - N/A   Overcast
5:15 PM 44.6°F 44.6°F 100% 30.36 in 10.0 miles SSW 6.9 mph - N/A   Overcast
5:35 PM 44.6°F 44.6°F 100% 30.36 in 10.0 miles SSW 6.9 mph - N/A   Overcast
5:55 PM 44.6°F 44.6°F 100% 30.36 in 10.0 miles SSW 6.9 mph - N/A   Overcast
6:15 PM 44.6°F 44.6°F 100% 30.36 in 10.0 miles SSW 5.8 mph - N/A   Overcast
6:35 PM 44.6°F 44.6°F 100% 30.37 in 10.0 miles SW 8.1 mph - N/A   Overcast
6:55 PM 44.6°F 44.6°F 100% 30.37 in 10.0 miles SW 8.1 mph - N/A   Overcast
7:15 PM 44.6°F 44.6°F 100% 30.37 in 10.0 miles SW 8.1 mph - N/A   Overcast
7:35 PM 44.6°F 44.6°F 100% 30.37 in 10.0 miles SW 11.5 mph 19.6 mph N/A   Overcast
7:55 PM 44.6°F 44.6°F 100% 30.37 in 10.0 miles WSW 6.9 mph - N/A   Overcast
8:15 PM 44.6°F 44.6°F 100% 30.37 in 10.0 miles SW 5.8 mph - N/A   Overcast
8:35 PM 44.6°F 42.8°F 93% 30.38 in 10.0 miles SW 6.9 mph - N/A Rain Light Rain
8:55 PM 44.6°F 42.8°F 93% 30.38 in 10.0 miles SW 4.6 mph - N/A Rain Light Rain
9:15 PM 44.6°F 44.6°F 100% 30.37 in 6.0 miles SW 5.8 mph - 0.02 in   Overcast
9:35 PM 42.8°F 42.8°F 100% 30.36 in 10.0 miles SSW 3.5 mph - 0.03 in   Mostly Cloudy
9:55 PM 42.8°F 42.8°F 100% 30.37 in 10.0 miles SSW 3.5 mph - 0.03 in   Mostly Cloudy
10:15 PM 42.8°F 42.8°F 100% 30.36 in 10.0 miles SSW 3.5 mph - N/A   Overcast
10:35 PM 44.6°F 42.8°F 93% 30.36 in 10.0 miles SSW 5.8 mph - N/A   Overcast
10:55 PM 44.6°F 42.8°F 93% 30.35 in 10.0 miles SSW 5.8 mph - N/A Rain Light Rain
11:15 PM 44.6°F 42.8°F 93% 30.35 in 10.0 miles Calm Calm - N/A Rain Light Rain
11:55 PM 44.6°F 44.6°F 100% 30.35 in 10.0 miles Calm Calm - 0.01 in Rain Light Rain
Moon Phase
Jan. 29 Feb. 03 Feb. 10 Feb. 17 Feb. 25
Sunrise:07:37 AM (PST) Moon Rise:08:25 PM (PST)
Sunset:05:07 PM (PST) Moon Set:08:23 AM (PST)

Copyright © 2014 The Weather Underground, Inc.